"Pseudo-MPEC" for P10Y6ur

Created 2020 Mar 28 5:07:13 UT using Find_Orb

Click here for an explanation of pseudo-MPECs

 
 Astrometry: 
     P10Y6ur  C2020 03 23y4EtyHI-E0yMw)EpWM?#Astrometry3[\(IZ-Biu#t8VC;cBLpIEF51
     P10Y6ur  C2020 03 23os#v8Z/NkQQRsoAI3xC%.fAK/mhYp3NCredacted;jJ5J3cgXor1F51
     P10Y6ur  C2020 03 23hg,7T_53mUT?!-wK@Kn1O^5b!ApN,_;lPIQ?]Eu79mKkEpg0FKF.F51
     P10Y6ur  C2020 03 23L)CQi\F\fp3,Sclick2[DPNkU?0U6we\H1hereDNh(q?qSe-@5uBF51
     P10Y6ur  C2020 03 23-aA852G/vEsB[u-YJu;ungO4tIIoOFWjgIYSphPMgIoyV\#RQx'4F51
     P10Y6ur  C2020 03 23mP8bY^sI%B]XmK.@92i;eEQhQ)fR!n@nxX1Xp*[u'TtD:7N),9(^F51
     P10Y6ur  C2020 03 24.14176 15 49 28.27 -08 41 06.3    ~3O47 22.2 VVNEOCP033
     P10Y6ur  C2020 03 24.14534 15 49 28.18 -08 41 05.7    ~3O47 22.0 VVNEOCP033
     P10Y6ur  C2020 03 24.14892 15 49 28.07 -08 41 05.3    ~3O47 21.7 VVNEOCP033
     P10Y6ur ^C2020 03 24.60139815 49 15.379-08 39 26.54   ~3OHq 21.85GVNEOCP568
     P10Y6ur ^C2020 03 24.60234715 49 15.346-08 39 26.35   ~3OHq 21.82GVNEOCP568
     P10Y6ur  C2020 03 24[ZAfBp,kHeZ[`1g4?a2[UId8VWAn9Ui;A1e'V3FXn\?dm,R2Hem#T12
     P10Y6ur ^C2020 03 24.60329815 49 15.314-08 39 26.17   ~3OHq 21.97GVNEOCP568
     P10Y6ur  C2020 03 24hWpDi7l(F[CAGbH#uo\CQUforaD;:0cY#AG57l$(^`Nt]oAE=D@fT12
     P10Y6ur  C2020 03 24Z=5%;Q?Knx)irZFPb*6jXs9y1D8wexplanation$Vo:\0EU\m.?7T12
     P10Y6ur  C2020 03 27.10409 15 47 52.69 -08 30 38.6    ~3RAM 21.7 VVNEOCP033
     P10Y6ur  C2020 03 27.10767 15 47 52.49 -08 30 38.7    ~3RAM 21.7 VVNEOCP033
     P10Y6ur  C2020 03 27.11125 15 47 52.32 -08 30 37.7    ~3RAM 22.2 VVNEOCP033

Station data:
(033) Karl Schwarzschild Observatory, Tautenburg  (N50.980140 E11.711240)
   Germany. 1.3-m Schmidt.
(568) Mauna Kea  (N19.826116 W155.472200)  US/Hawaii.
(F51) Pan-STARRS 1, Haleakala  (N20.707235 W156.255910)  US/Hawaii.
   Observers N. Primak, A. Schultz, S. Watters, J. Thiel, T. Goggia. Measurer
   PS1 Science Consortium. 1.8-m Ritchey-Chrétien + CCD.
(T12) Mauna Kea-UH/Tholen NEO Follow-Up (2.24-m)  (N19.822991 W155.469434)
   US/Hawaii.  Observers D. Fohring, D. Hung, Y. Ramanjooloo, Z. Claytor, D.
   J. Tholen. 2.24-m University of Hawaii reflector.

Orbital elements:  P10Y6ur
   Perihelion 2019 Dec 23.664350 +/- 2.6 TT = 15:56:39 (JD 2458841.164350)
Epoch 2020 Mar 27.0 TT = JDT 2458935.5   Earth MOID: 0.0950   AutoNEOCP
M  23.71119155 +/- 2.1              (J2000 ecliptic)
n   0.25134921 +/- 0.0162           Peri.   22.39393 +/- 0.10
a   2.48666735 +/- 0.107            Node   103.79661 +/- 1.2
e   0.5682756 +/- 0.0182            Incl.    5.20415 +/- 0.06
P   3.92                   H 20.7   G  0.15   U 10.0  
q 1.07355488 +/- 0.000956    Q 3.89977981 +/- 0.219
From 18 observations 2020 Mar. 23-27; mean residual 0".23
Residuals in arcseconds: 
200323 F51  .12+  .09-    200324 033  .54-  .32+    200324 568  .02+  .00     
200323 F51  .04+  .16-    200324 033  .24-  .18+    200324 T12  .05-  .00     
200323 F51  .06+  .17-    200324 033  .25-  .16-    200324 T12  .06+  .00     
200323 F51  .17-  .08+    200324 568  .03+  .03+    200327 033  .65+  .50+    
200323 F51  .27+  .06+    200324 568  .02+  .02+    200327 033  .16-  .38-    
200323 F51  .19+  .08-    200324 T12  .01+  .00     200327 033  .53-  .16-    

Ephemerides (geocentric):
Date (UTC) HH   RA              Dec         delta   r     elong  mag " sig PA
---- -- -- --  -------------   -----------  ------ ------ -----  --- ---- ---
2020 03 28 05  15 47 09.475   -08 26 27.07  .70158 1.5473 130.3 22.2 .248  32
2020 03 28 06  15 47 07.769   -08 26 17.90  .70160 1.5477 130.3 22.2 .259  31
2020 03 28 07  15 47 06.059   -08 26 08.72  .70162 1.5480 130.4 22.2 .270  30
2020 03 28 08  15 47 04.342   -08 25 59.55  .70164 1.5483 130.4 22.2 .281  29
2020 03 28 09  15 47 02.620   -08 25 50.36  .70166 1.5486 130.5 22.2 .293  28
2020 03 28 10  15 47 00.892   -08 25 41.18  .70168 1.5489 130.5 22.2 .305  27
2020 03 28 11  15 46 59.159   -08 25 31.98  .70170 1.5492 130.6 22.2 .317  27
2020 03 28 12  15 46 57.420   -08 25 22.79  .70172 1.5495 130.6 22.2 .329  26
2020 03 28 13  15 46 55.676   -08 25 13.59  .70173 1.5498 130.7 22.2 .341  25
2020 03 28 14  15 46 53.926   -08 25 04.38  .70175 1.5501 130.7 22.2 .354  24
2020 03 28 15  15 46 52.170   -08 24 55.17  .70177 1.5504 130.8 22.2 .366  24
2020 03 28 16  15 46 50.409   -08 24 45.96  .70179 1.5508 130.8 22.2 .379  23
2020 03 28 17  15 46 48.643   -08 24 36.74  .70181 1.5511 130.9 22.2 .392  22
2020 03 28 18  15 46 46.871   -08 24 27.52  .70183 1.5514 130.9 22.2 .406  22
2020 03 28 19  15 46 45.093   -08 24 18.29  .70185 1.5517 130.9 22.2 .419  21
2020 03 28 20  15 46 43.310   -08 24 09.06  .70188 1.5520 131.0 22.2 .433  20
2020 03 28 21  15 46 41.521   -08 23 59.83  .70190 1.5523 131.0 22.2 .447  20
2020 03 28 22  15 46 39.727   -08 23 50.59  .70192 1.5526 131.1 22.2 .461  19
2020 03 28 23  15 46 37.927   -08 23 41.35  .70194 1.5529 131.1 22.2 .475  18
2020 03 29 00  15 46 36.122   -08 23 32.10  .70196 1.5532 131.2 22.2 .490  18
2020 03 29 01  15 46 34.311   -08 23 22.85  .70198 1.5536 131.2 22.2 .504  17
2020 03 29 02  15 46 32.495   -08 23 13.59  .70200 1.5539 131.3 22.2 .519  17
2020 03 29 03  15 46 30.674   -08 23 04.33  .70202 1.5542 131.3 22.2 .534  16
2020 03 29 04  15 46 28.846   -08 22 55.07  .70205 1.5545 131.4 22.2 .550  16
2020 03 29 05  15 46 27.014   -08 22 45.81  .70207 1.5548 131.4 22.2 .565  15
2020 03 29 06  15 46 25.176   -08 22 36.53  .70209 1.5551 131.5 22.2 .581  15
2020 03 29 07  15 46 23.332   -08 22 27.26  .70211 1.5554 131.5 22.2 .597  14
2020 03 29 08  15 46 21.483   -08 22 17.98  .70213 1.5557 131.6 22.2 .613  14
2020 03 29 09  15 46 19.629   -08 22 08.70  .70216 1.5560 131.6 22.2 .629  13
2020 03 29 10  15 46 17.769   -08 21 59.41  .70218 1.5563 131.7 22.2 .646  13
2020 03 29 11  15 46 15.903   -08 21 50.12  .70220 1.5567 131.7 22.2 .663  12
2020 03 29 12  15 46 14.032   -08 21 40.83  .70223 1.5570 131.8 22.2 .679  12
2020 03 29 13  15 46 12.156   -08 21 31.53  .70225 1.5573 131.8 22.2 .697  11
2020 03 29 14  15 46 10.274   -08 21 22.23  .70227 1.5576 131.8 22.2 .714  11
2020 03 29 15  15 46 08.387   -08 21 12.93  .70230 1.5579 131.9 22.2 .732  11
2020 03 29 16  15 46 06.495   -08 21 03.62  .70232 1.5582 131.9 22.2 .749  10
2020 03 29 17  15 46 04.597   -08 20 54.31  .70235 1.5585 132.0 22.2 .767  10
2020 03 29 18  15 46 02.693   -08 20 44.99  .70237 1.5588 132.0 22.2 .786   9
2020 03 29 19  15 46 00.784   -08 20 35.67  .70239 1.5591 132.1 22.2 .804   9
2020 03 29 20  15 45 58.870   -08 20 26.35  .70242 1.5595 132.1 22.2 .823   8
2020 03 29 21  15 45 56.951   -08 20 17.03  .70244 1.5598 132.2 22.2 .842   8
2020 03 29 22  15 45 55.026   -08 20 07.70  .70247 1.5601 132.2 22.2 .861   8
2020 03 29 23  15 45 53.095   -08 19 58.36  .70249 1.5604 132.3 22.2 .880   7
2020 03 30 00  15 45 51.159   -08 19 49.03  .70252 1.5607 132.3 22.2 .900   7
2020 03 30 01  15 45 49.218   -08 19 39.69  .70255 1.5610 132.4 22.2 .920   6
2020 03 30 02  15 45 47.272   -08 19 30.35  .70257 1.5613 132.4 22.2 .940   6
2020 03 30 03  15 45 45.320   -08 19 21.00  .70260 1.5616 132.5 22.2 .960   6
2020 03 30 04  15 45 43.363   -08 19 11.65  .70262 1.5619 132.5 22.2 .980   5